[[{"header":{"parameterUnit":"m.s-1","parameterCategory":2,"la1":30.2991,"la2":30.254,"lo1":-89.0895,"lo2":-89.0444,"dy":0.0017,"dx":0.0017,"nx":28,"ny":28,"refTime":"2024-06-10T03:00:00:Z","depth":"0","parameterNumber":2,"parameterNumberName":"U-component_of_CURRENTS"},"data":[0,0,0,0,0,0,0,0,0,0,0,0,0,0,0,0,0,0,0,0,0,0,0,0,0,0,0,0,0,0,0,0,0,0,0,0,0,0,0,0,0,0,0,0,0,0,0,0,0,0,0,0,0,0,0,0,0,0,0.1913,0.1914,0,0.1988,0.1988,0.1988,0.2006,0.2006,0.2007,0.2007,0.1929,0.1927,0.1925,0,0,0,0,0,0,0,0,0,0,0,0,0,0.1632,0.1638,0.1913,0.1914,0.1916,0.1988,0.1988,0.1988,0.2006,0.2006,0.2007,0.2007,0.193,0.1927,0.1925,0,0,0,0,0,0,0,0,0,0,0,0,0,0.1727,0.1639,0.1912,0.194,0.1944,0.1988,0.1988,0.1988,0.2006,0.2006,0.2007,0.2007,0.1931,0.1928,0.1924,0.1893,0,0,0.1914,0.1912,0,0,0,0,0,0,0,0,0.1722,0.1737,0.1934,0.1938,0.1943,0.1996,0.1861,0.1952,0.2006,0.1973,0.2007,0.2008,0.1943,0.1938,0.1941,0.189,0.1886,0.1913,0.1911,0.191,0.1909,0,0,0,0,0,0,0,0.1716,0.1733,0.1933,0.1936,0.1942,0.1897,0.1912,0.1878,0.1945,0.1976,0.198,0.2002,0.1943,0.1945,0.1939,0.1885,0.1913,0.191,0.1908,0.1907,0.1799,0.1798,0,0,0,0,0,0,0.1733,0.1728,0.1931,0.1937,0.1841,0.1903,0.1919,0.1971,0.1949,0.195,0.2002,0.2003,0.195,0.1943,0.1936,0.1896,0.191,0.1906,0.1904,0.1799,0.1798,0.1798,0,0,0,0,0,0,0.1727,0.1751,0.1928,0.1838,0.1859,0.191,0.1967,0.1973,0.1977,0.1971,0.1967,0.2001,0.1951,0.1941,0.1906,0.1893,0.1905,0.1901,0.18,0.1799,0.1798,0.1816,0,0,0,0,0,0,0.1719,0.1749,0.1778,0.1841,0.1865,0.1954,0.1968,0.1974,0.1994,0.1996,0.1969,0.1963,0.195,0.1911,0.1902,0.1889,0.1899,0.1801,0.18,0.1798,0.1817,0.1816,0.1815,0,0,0,0,0,0.1709,0.1763,0.1779,0.1803,0.1909,0.1955,0.1961,0.1991,0.1993,0.1994,0.1975,0.1964,0.1896,0.1908,0.1897,0.1882,0.1802,0.18,0.1798,0.1817,0.1816,0.1815,0,0,0,0,0,0,0.1656,0.1772,0.1792,0.1878,0.191,0.1962,0.1979,0.1987,0.1975,0.1973,0.1953,0.1944,0.1915,0.1889,0.1903,0.1846,0.1847,0.1843,0.1864,0.1863,0.1862,0.1916,0.1896,0,0,0,0,0,0.166,0.173,0.1806,0.1866,0.189,0.1925,0.1944,0.1963,0.1973,0.197,0.195,0.1922,0.1899,0.1875,0.1854,0.1812,0.1925,0.1795,0.1794,0.1794,0.1829,0.2028,0.2051,0.1792,0.1792,0.1792,0,0,0.1652,0.1728,0.1763,0.1857,0.1888,0.1914,0.1936,0.1973,0.1972,0.1958,0.1936,0.1923,0.1891,0.186,0.1841,0.1834,0.1921,0.1792,0.1792,0.1828,0.2029,0.2056,0.2079,0.1791,0.1791,0.1791,0,0,0.1675,0.1742,0.1802,0.1831,0.1893,0.1907,0.1916,0.1957,0.1955,0.1939,0.1932,0.1923,0.1866,0.1859,0.1843,0.1822,0.1923,0.1792,0.1819,0.201,0.2035,0.2059,0.2232,0.2271,0.1779,0.1779,0.1779,0,0.1653,0.176,0.1813,0.1863,0.1891,0.1902,0.1937,0.1926,0.1939,0.1946,0.1933,0.192,0.1878,0.1875,0.1859,0.1825,0.196,0.1824,0.2019,0.2044,0.2069,0.224,0.2284,0.1779,0.1779,0.1779,0.1779,0,0.172,0.1785,0.1818,0.1888,0.1904,0.1941,0.1946,0.1939,0.1933,0.1939,0.195,0.1927,0.1939,0.1896,0.1863,0.1973,0.2023,0.2014,0.2039,0.2098,0.2272,0.2317,0.178,0.178,0.178,0.178,0,0,0.1737,0.1846,0.1857,0.1895,0.1929,0.1957,0.1939,0.1958,0.1982,0.1965,0.2022,0.1962,0.1993,0.198,0.1952,0.207,0.2322,0.211,0.212,0.2315,0.2779,0.2735,0.2781,0.2381,0.2388,0.2394,0.2832,0,0.1774,0.1877,0.1911,0.1961,0.2013,0.2004,0.2001,0.2002,0.2003,0.2045,0.204,0.2077,0.2008,0.2041,0.2149,0.2294,0.2444,0.2206,0.2664,0.2678,0.2662,0.2832,0.2712,0.3087,0.2877,0.2884,0.289,0,0.1848,0.1908,0.1984,0.2046,0.2066,0.2074,0.2106,0.2106,0.2133,0.2149,0.2192,0.2208,0.2324,0.228,0.2618,0.2488,0.2647,0.2755,0.2776,0.277,0.2719,0.2991,0.3177,0.3057,0.296,0.2954,0.2949,0,0.1885,0.1966,0.2031,0.205,0.2102,0.2121,0.2132,0.2149,0.2169,0.2244,0.2305,0.2427,0.2542,0.2757,0.2916,0.2837,0.3328,0.3252,0.3364,0.3363,0.3366,0.335,0.3521,0.3552,0.3551,0.355,0.3549,0,0.1952,0.2006,0.2057,0.2099,0.2157,0.2175,0.2234,0.225,0.2303,0.2363,0.2387,0.2495,0.2688,0.2921,0.3059,0.3371,0.3473,0.3446,0.3503,0.3359,0.3339,0.3312,0.3197,0.3566,0.3563,0.3559,0.3557,0,0.2011,0.2048,0.2125,0.2178,0.2192,0.2236,0.2282,0.2317,0.2378,0.2473,0.2514,0.2664,0.2974,0.3144,0.3529,0.3581,0.3755,0.3919,0.3712,0.3735,0.3662,0.3549,0.3704,0.3605,0.4161,0.4163,0.4165,0,0.2056,0.211,0.2176,0.2196,0.2225,0.2278,0.2303,0.2351,0.2388,0.2569,0.2629,0.2918,0.3093,0.3603,0.3779,0.4081,0.3886,0.4113,0.3901,0.371,0.3631,0.3424,0.3311,0.3932,0.3931,0.3931,0.3931,0,0.2118,0.2144,0.2186,0.2237,0.2269,0.231,0.2357,0.2396,0.2471,0.2587,0.2797,0.2967,0.3384,0.3628,0.3947,0.4085,0.3873,0.4113,0.4013,0.3564,0.3265,0.3176,0.3565,0.3928,0.3928,0.3929,0.3929,0.3929,0.2128,0.2165,0.2202,0.2251,0.2282,0.2313,0.2331,0.2397,0.2494,0.2635,0.2855,0.3089,0.3402,0.3827,0.3942,0.399,0.391,0.391,0.3835,0.3678,0.3429,0.3786,0.4117,0.4118,0.4119,0.412,0.4121,0,0.211,0.2147,0.2198,0.2232,0.2247,0.228,0.2329,0.2344,0.244,0.2642,0.2834,0.3165,0.3387,0.3597,0.3773,0.3725,0.3552,0.363,0.3314,0.325,0.3711,0.3538,0.3636,0.3636,0.3637,0.3637,0.3637,0.3637,0.2083,0.2117,0.2157,0.2171,0.2192,0.2183,0.2196,0.2259,0.2374,0.2582,0.276,0.2959,0.3227,0.3436,0.3453,0.3401,0.3137,0.3041,0.3,0.3291,0.3309,0.3326,0.3139,0.3152,0.3152,0.2435,0.2429,0.2425]},{"header":{"parameterUnit":"m.s-1","parameterCategory":2,"la1":30.2991,"la2":30.254,"lo1":-89.0895,"lo2":-89.0444,"dy":0.0017,"dx":0.0017,"nx":28,"ny":28,"refTime":"2024-06-10T03:00:00:Z","depth":"0","parameterNumber":3,"parameterNumberName":"V-component_of_CURRENTS"},"data":[0,0,0,0,0,0,0,0,0,0,0,0,0,0,0,0,0,0,0,0,0,0,0,0,0,0,0,0,0,0,0,0,0,0,0,0,0,0,0,0,0,0,0,0,0,0,0,0,0,0,0,0,0,0,0,0,0,0,-0.0325,-0.0327,0,-0.0404,-0.0405,-0.0405,-0.0438,-0.0438,-0.0438,-0.0439,-0.0434,-0.0433,-0.0433,0,0,0,0,0,0,0,0,0,0,0,0,0,-0.023,-0.0231,-0.0325,-0.0327,-0.0328,-0.0404,-0.0405,-0.0405,-0.0438,-0.0438,-0.0439,-0.0439,-0.0434,-0.0433,-0.0433,0,0,0,0,0,0,0,0,0,0,0,0,0,-0.0282,-0.0231,-0.0325,-0.0357,-0.0361,-0.0404,-0.0405,-0.0405,-0.0438,-0.0438,-0.0439,-0.0439,-0.0434,-0.0433,-0.0433,-0.0421,0,0,-0.0431,-0.0431,0,0,0,0,0,0,0,0,-0.0279,-0.0284,-0.0351,-0.0355,-0.036,-0.0416,-0.037,-0.0408,-0.0438,-0.0404,-0.0439,-0.0439,-0.0423,-0.0423,-0.0431,-0.0421,-0.0421,-0.0431,-0.0431,-0.043,-0.043,0,0,0,0,0,0,0,-0.0275,-0.0281,-0.0352,-0.0352,-0.0358,-0.0377,-0.0384,-0.0377,-0.0405,-0.0407,-0.041,-0.0427,-0.0424,-0.0432,-0.0431,-0.0421,-0.0431,-0.0431,-0.043,-0.043,-0.0368,-0.0367,0,0,0,0,0,0,-0.0273,-0.0278,-0.0349,-0.0354,-0.0325,-0.0379,-0.0386,-0.0393,-0.0407,-0.0411,-0.0426,-0.0428,-0.0433,-0.0432,-0.0431,-0.0407,-0.043,-0.043,-0.043,-0.0369,-0.0368,-0.0366,0,0,0,0,0,0,-0.027,-0.0278,-0.0346,-0.0322,-0.0333,-0.038,-0.0388,-0.0395,-0.0404,-0.0423,-0.0425,-0.0429,-0.0433,-0.0432,-0.0415,-0.0407,-0.043,-0.0429,-0.0371,-0.0369,-0.0367,-0.0364,0,0,0,0,0,0,-0.0267,-0.0276,-0.0275,-0.0322,-0.0334,-0.0367,-0.0388,-0.0396,-0.0416,-0.0419,-0.0426,-0.0427,-0.0433,-0.0416,-0.0415,-0.0407,-0.0429,-0.0373,-0.037,-0.0368,-0.0366,-0.0362,-0.0359,0,0,0,0,0,-0.0263,-0.0263,-0.0274,-0.0283,-0.0332,-0.0368,-0.0375,-0.0407,-0.0416,-0.0416,-0.0415,-0.0426,-0.04,-0.0415,-0.0413,-0.0405,-0.0374,-0.0371,-0.0368,-0.0367,-0.0363,-0.0359,0,0,0,0,0,0,-0.0219,-0.0268,-0.0281,-0.0295,-0.0327,-0.0375,-0.0383,-0.0403,-0.0405,-0.0403,-0.0413,-0.0413,-0.0394,-0.0392,-0.0409,-0.0376,-0.0387,-0.0383,-0.0387,-0.0383,-0.0379,-0.0379,-0.0428,0,0,0,0,0,-0.0209,-0.0221,-0.027,-0.0278,-0.0294,-0.0335,-0.0352,-0.0374,-0.039,-0.0393,-0.0397,-0.0391,-0.0381,-0.0377,-0.0367,-0.0351,-0.0317,-0.0341,-0.0338,-0.0335,-0.0331,-0.0251,-0.024,-0.0357,-0.0357,-0.0357,0,0,-0.0197,-0.0224,-0.0231,-0.027,-0.0296,-0.0315,-0.0345,-0.0369,-0.0379,-0.0388,-0.0386,-0.038,-0.0372,-0.0356,-0.0347,-0.0355,-0.0284,-0.0331,-0.033,-0.0327,-0.0246,-0.0235,-0.0225,-0.0355,-0.0355,-0.0355,0,0,-0.0183,-0.0199,-0.0207,-0.0231,-0.0273,-0.0297,-0.0302,-0.0342,-0.0354,-0.0352,-0.0357,-0.0344,-0.0333,-0.0329,-0.0325,-0.0293,-0.0267,-0.0287,-0.0275,-0.0197,-0.0186,-0.0177,-0.0123,-0.0109,-0.0287,-0.0287,-0.0287,0,-0.0166,-0.0182,-0.0214,-0.0229,-0.0246,-0.0285,-0.0296,-0.0313,-0.034,-0.0337,-0.0346,-0.0314,-0.0321,-0.0292,-0.0292,-0.0288,-0.0239,-0.0297,-0.0193,-0.0183,-0.0173,-0.0119,-0.0104,-0.0287,-0.0287,-0.0287,-0.0287,0,-0.0164,-0.0174,-0.018,-0.0208,-0.0226,-0.0241,-0.0276,-0.0282,-0.0295,-0.0307,-0.0282,-0.028,-0.0258,-0.0262,-0.0276,-0.0216,-0.0202,-0.0197,-0.0206,-0.0161,-0.0108,-0.0091,-0.0286,-0.0286,-0.0286,-0.0286,0,0,-0.0134,-0.0172,-0.0172,-0.0177,-0.0216,-0.0228,-0.0239,-0.0255,-0.024,-0.0255,-0.0214,-0.0229,-0.0221,-0.0213,-0.0216,-0.017,-0.0083,-0.0159,-0.0156,-0.0112,0.0091,0.0072,0.0088,-0.0047,-0.0044,-0.0042,0.0099,0,-0.0123,-0.0135,-0.016,-0.0163,-0.0171,-0.0202,-0.0203,-0.0216,-0.0215,-0.0179,-0.0179,-0.014,-0.0203,-0.0172,-0.0141,-0.0063,-0.0038,-0.0122,0.0046,0.0051,0.0024,0.0107,0.0054,0.0173,0.0115,0.0117,0.0119,0,-0.0113,-0.0121,-0.0125,-0.0133,-0.0138,-0.0141,-0.0132,-0.0136,-0.0111,-0.0103,-0.0076,-0.0058,0.0002,-0.0049,0.0071,0.0032,0.0043,0.0078,0.0085,0.0079,0.0063,0.0121,0.0205,-0.0016,0.0145,0.0142,0.0141,0,-0.0075,-0.0092,-0.0089,-0.0096,-0.0115,-0.0112,-0.0113,-0.0106,-0.008,-0.0031,0.0027,0.007,0.0159,0.0186,0.0231,0.0174,0.0385,0.0322,0.0297,0.0296,0.0287,0.028,0.0172,0.0374,0.0374,0.0373,0.0373,0,-0.0056,-0.0052,-0.0067,-0.0068,-0.0043,-0.0068,-0.0027,-0.003,0.0022,0.0103,0.0085,0.0198,0.0231,0.034,0.0317,0.0395,0.0457,0.0322,0.0345,0.0285,0.0276,0.0112,0.0007,0.0379,0.0377,0.0376,0.0375,0,-0.0029,-0.004,-0.0033,-0.0038,-0.0029,-0.001,0.0028,0.0069,0.0102,0.0226,0.026,0.0364,0.0523,0.0534,0.0643,0.0545,0.049,0.0573,0.0488,0.0495,0.0211,0.0111,0.012,0.0037,0.0565,0.0565,0.0566,0,-0.0024,-0.0018,-0.0004,0.002,0.0019,0.0051,0.0086,0.0108,0.0174,0.0346,0.0439,0.0612,0.0784,0.0917,0.08,0.0775,0.0577,0.062,0.0464,0.0206,0.0113,0.0052,-0.0025,0.0457,0.0457,0.0457,0.0456,0,-0.0012,-0.0005,0.0006,0.0064,0.0103,0.0154,0.0219,0.0293,0.0371,0.0528,0.0787,0.0955,0.104,0.1059,0.095,0.0852,0.0448,0.0607,0.0385,0.0059,-0.0052,-0.0125,0.0329,0.0453,0.0453,0.0454,0.0454,0.0454,0.0002,0.0026,0.0058,0.0119,0.0172,0.0277,0.0375,0.0502,0.0692,0.0998,0.1087,0.1415,0.1235,0.1119,0.0918,0.0416,0.0455,0.0218,0.0135,0.011,-0.0034,0.0395,0.0508,0.0508,0.0509,0.0509,0.051,0,0.0035,0.0073,0.0121,0.021,0.0301,0.0318,0.0485,0.0653,0.0961,0.1262,0.1554,0.1672,0.1398,0.1033,0.0386,0.0002,-0.0157,-0.0215,-0.0358,-0.0401,0.0019,-0.006,-0.0119,-0.0118,-0.0118,-0.0118,-0.0118,-0.0117,0.0055,0.012,0.0159,0.032,0.0398,0.0585,0.0714,0.1007,0.1268,0.1742,0.1994,0.2149,0.1797,0.0585,-0.0293,-0.05,-0.0765,-0.0792,-0.0893,-0.0699,-0.0668,-0.0638,-0.0742,-0.0942,-0.0943,-0.1315,-0.1319,-0.1323]}],[{"header":{"parameterUnit":"m.s-1","parameterCategory":2,"la1":30.2991,"la2":30.254,"lo1":-89.0895,"lo2":-89.0444,"dy":0.0017,"dx":0.0017,"nx":28,"ny":28,"refTime":"2024-06-10T03:00:00:Z","depth":"2","parameterNumber":2,"parameterNumberName":"U-component_of_CURRENTS"},"data":[0,0,0,0,0,0,0,0,0,0,0,0,0,0,0,0,0,0,0,0,0,0,0,0,0,0,0,0,0,0,0,0,0,0,0,0,0,0,0,0,0,0,0,0,0,0,0,0,0,0,0,0,0,0,0,0,0,0,0.138,0.1381,0,0.1432,0.1433,0.1433,0.1437,0.1437,0.1436,0.1436,0.1482,0.1484,0.1485,0,0,0,0,0,0,0,0,0,0,0,0,0,0.1353,0.1353,0.138,0.1381,0.1382,0.1432,0.1433,0.1433,0.1437,0.1437,0.1436,0.1436,0.1481,0.1483,0.1485,0,0,0,0,0,0,0,0,0,0,0,0,0,0.1379,0.1353,0.138,0.1391,0.1393,0.1432,0.1433,0.1433,0.1437,0.1437,0.1436,0.1436,0.1481,0.1483,0.1486,0.1512,0,0,0.1493,0.1494,0,0,0,0,0,0,0,0,0.1378,0.138,0.1389,0.139,0.1392,0.1429,0.144,0.146,0.1438,0.1419,0.1436,0.1435,0.1465,0.1469,0.1478,0.1515,0.1517,0.1493,0.1495,0.1496,0.1496,0,0,0,0,0,0,0,0.1376,0.1378,0.1399,0.139,0.1392,0.1417,0.142,0.1444,0.1443,0.142,0.1421,0.143,0.1466,0.1475,0.1479,0.1517,0.1493,0.1495,0.1497,0.1498,0.1637,0.1639,0,0,0,0,0,0,0.137,0.1376,0.1397,0.1401,0.1385,0.1418,0.1421,0.1417,0.1443,0.1447,0.143,0.143,0.1472,0.1476,0.148,0.1565,0.1496,0.1498,0.1499,0.1634,0.1637,0.1639,0,0,0,0,0,0,0.1369,0.1371,0.1395,0.1392,0.1397,0.1419,0.1415,0.1418,0.1438,0.1451,0.1455,0.1448,0.1471,0.1477,0.1526,0.1565,0.1499,0.1501,0.1632,0.1635,0.1638,0.1701,0,0,0,0,0,0,0.1368,0.137,0.1369,0.1391,0.1397,0.1434,0.1416,0.1419,0.1444,0.1444,0.1468,0.147,0.1471,0.1523,0.1528,0.1567,0.1503,0.1629,0.1633,0.1637,0.1696,0.1706,0.1715,0,0,0,0,0,0.1366,0.1373,0.1368,0.1371,0.1393,0.1436,0.1442,0.1455,0.1446,0.1467,0.1486,0.147,0.1553,0.1527,0.1533,0.1573,0.1627,0.1632,0.1637,0.1692,0.1704,0.1715,0,0,0,0,0,0,0.137,0.1375,0.137,0.1379,0.141,0.1438,0.1462,0.1465,0.1495,0.1498,0.1499,0.1505,0.1562,0.1563,0.1533,0.1627,0.1588,0.1594,0.1628,0.1639,0.1649,0.1651,0.1505,0,0,0,0,0,0.1368,0.1366,0.1389,0.14,0.1419,0.144,0.1459,0.1471,0.1499,0.1511,0.1531,0.1556,0.1587,0.1609,0.1635,0.1688,0.1718,0.1719,0.1729,0.1736,0.1745,0.1813,0.1829,0.1656,0.1656,0.1656,0,0,0.1372,0.1375,0.1375,0.14,0.1425,0.1468,0.1451,0.1493,0.153,0.1513,0.1576,0.1589,0.1609,0.1668,0.1694,0.1675,0.1811,0.1743,0.1749,0.1753,0.182,0.1837,0.1851,0.166,0.1659,0.1658,0,0,0.1396,0.1389,0.1406,0.1435,0.1475,0.1496,0.1511,0.1553,0.1574,0.1632,0.1631,0.1673,0.172,0.1747,0.1763,0.1843,0.1855,0.185,0.1904,0.197,0.1985,0.1998,0.2096,0.2117,0.1858,0.1858,0.1858,0,0.1405,0.1421,0.1424,0.1462,0.1492,0.1512,0.1559,0.1592,0.1645,0.167,0.1663,0.1744,0.1761,0.1829,0.186,0.1864,0.1912,0.1855,0.1982,0.1995,0.2007,0.2104,0.2127,0.1862,0.1861,0.1861,0.186,0,0.1449,0.1469,0.1492,0.1534,0.1572,0.1617,0.1663,0.1704,0.1728,0.1755,0.1826,0.1853,0.1897,0.1915,0.1914,0.2008,0.2021,0.1982,0.1949,0.2028,0.2126,0.2149,0.1867,0.1866,0.1864,0.1864,0,0,0.1466,0.1508,0.1521,0.1544,0.1611,0.1646,0.1719,0.1784,0.1827,0.1878,0.194,0.1999,0.2002,0.2022,0.2027,0.2088,0.223,0.2078,0.208,0.2171,0.2413,0.2334,0.2351,0.221,0.2213,0.2216,0.2461,0,0.1508,0.156,0.1583,0.1657,0.1695,0.1735,0.1797,0.1857,0.1905,0.1974,0.2009,0.2069,0.2046,0.2073,0.2132,0.2197,0.2285,0.2169,0.2328,0.2334,0.2247,0.2371,0.213,0.2319,0.2483,0.2486,0.2489,0,0.1553,0.1583,0.164,0.17,0.1724,0.1773,0.1862,0.192,0.2012,0.205,0.211,0.2136,0.2238,0.2197,0.2367,0.2295,0.2371,0.242,0.243,0.2343,0.2293,0.226,0.2353,0.2526,0.2523,0.252,0.2518,0,0.155,0.1626,0.1659,0.1684,0.1761,0.1801,0.1853,0.1943,0.2003,0.2103,0.2161,0.225,0.2328,0.2411,0.251,0.2456,0.2703,0.2635,0.2648,0.2645,0.2464,0.2437,0.2778,0.2778,0.2777,0.2776,0.2776,0,0.1568,0.1604,0.1658,0.1679,0.1743,0.1803,0.188,0.1941,0.2049,0.2132,0.2196,0.2291,0.2386,0.2519,0.2578,0.2697,0.2767,0.2696,0.2706,0.2482,0.2456,0.263,0.2609,0.2786,0.2784,0.2782,0.278,0,0.1545,0.1576,0.1624,0.1704,0.1734,0.1779,0.189,0.1947,0.2054,0.217,0.2212,0.2378,0.2558,0.2659,0.2838,0.2799,0.2903,0.2931,0.2678,0.2651,0.2791,0.2772,0.2973,0.2972,0.2971,0.2971,0.297,0,0.1518,0.1541,0.1624,0.1656,0.1691,0.1766,0.182,0.1934,0.2,0.2221,0.2278,0.2503,0.2642,0.2874,0.2858,0.2961,0.3013,0.2771,0.2596,0.2824,0.2814,0.2795,0.2777,0.2418,0.2413,0.2409,0.2406,0,0.1491,0.1524,0.1565,0.1628,0.1682,0.1741,0.1828,0.1886,0.2033,0.2168,0.2381,0.2525,0.2717,0.2707,0.2793,0.2794,0.2713,0.269,0.3033,0.2374,0.2311,0.2297,0.2296,0.237,0.2373,0.2376,0.2378,0.2379,0.1471,0.1493,0.1551,0.1607,0.166,0.1713,0.1763,0.1863,0.1996,0.2135,0.2308,0.2435,0.2478,0.2496,0.2471,0.2429,0.2595,0.245,0.2459,0.2472,0.2333,0.2267,0.2297,0.23,0.2303,0.2305,0.2307,0,0.1452,0.1491,0.1532,0.1593,0.1624,0.1683,0.1768,0.1801,0.1938,0.2019,0.2149,0.2017,0.2045,0.2144,0.2017,0.1997,0.1933,0.1931,0.1826,0.1864,0.1897,0.1723,0.1529,0.1527,0.1524,0.1522,0,0,0.1451,0.1483,0.1505,0.1545,0.1598,0.165,0.1702,0.1746,0.179,0.1776,0.179,0.1875,0.2044,0.173,0.1696,0.1612,0.1716,0.1546,0.2171,0.2083,0.2113,0.2202,0.1977,0,0,0,0,0]},{"header":{"parameterUnit":"m.s-1","parameterCategory":2,"la1":30.2991,"la2":30.254,"lo1":-89.0895,"lo2":-89.0444,"dy":0.0017,"dx":0.0017,"nx":28,"ny":28,"refTime":"2024-06-10T03:00:00:Z","depth":"2","parameterNumber":3,"parameterNumberName":"V-component_of_CURRENTS"},"data":[0,0,0,0,0,0,0,0,0,0,0,0,0,0,0,0,0,0,0,0,0,0,0,0,0,0,0,0,0,0,0,0,0,0,0,0,0,0,0,0,0,0,0,0,0,0,0,0,0,0,0,0,0,0,0,0,0,0,-0.0598,-0.0598,0,-0.0661,-0.0662,-0.0662,-0.0703,-0.0703,-0.0704,-0.0704,-0.0739,-0.0739,-0.0739,0,0,0,0,0,0,0,0,0,0,0,0,0,-0.0428,-0.0432,-0.0597,-0.0599,-0.06,-0.0661,-0.0662,-0.0662,-0.0703,-0.0703,-0.0704,-0.0705,-0.0738,-0.0739,-0.0739,0,0,0,0,0,0,0,0,0,0,0,0,0,-0.0495,-0.0433,-0.0597,-0.063,-0.0633,-0.0661,-0.0662,-0.0663,-0.0703,-0.0703,-0.0704,-0.0705,-0.0738,-0.0739,-0.0739,-0.0727,0,0,-0.0741,-0.0742,0,0,0,0,0,0,0,0,-0.0491,-0.0501,-0.0624,-0.0628,-0.0632,-0.0678,-0.0615,-0.0684,-0.0702,-0.0673,-0.0704,-0.0705,-0.0717,-0.0719,-0.0725,-0.0729,-0.073,-0.0741,-0.0742,-0.0742,-0.0742,0,0,0,0,0,0,0,-0.0487,-0.0498,-0.0619,-0.0625,-0.063,-0.0613,-0.0624,-0.0628,-0.0686,-0.0676,-0.0679,-0.0692,-0.0719,-0.0725,-0.0726,-0.0731,-0.0741,-0.0742,-0.0742,-0.0743,-0.0748,-0.0748,0,0,0,0,0,0,-0.049,-0.0494,-0.0618,-0.0622,-0.0566,-0.0616,-0.0628,-0.066,-0.0687,-0.0694,-0.0691,-0.0693,-0.0723,-0.0726,-0.0728,-0.0727,-0.0742,-0.0743,-0.0743,-0.0748,-0.0748,-0.0748,0,0,0,0,0,0,-0.0486,-0.0501,-0.0615,-0.056,-0.0574,-0.0619,-0.0654,-0.0661,-0.0675,-0.07,-0.0705,-0.0699,-0.0724,-0.0727,-0.0736,-0.0728,-0.0743,-0.0743,-0.0748,-0.0748,-0.0748,-0.0717,0,0,0,0,0,0,-0.0481,-0.0499,-0.052,-0.0562,-0.0578,-0.063,-0.0653,-0.0661,-0.0682,-0.0686,-0.0708,-0.0712,-0.0725,-0.0735,-0.0737,-0.0729,-0.0744,-0.0749,-0.0748,-0.0748,-0.0718,-0.0716,-0.0713,0,0,0,0,0,-0.0475,-0.0498,-0.0521,-0.0536,-0.0607,-0.063,-0.0635,-0.0666,-0.0682,-0.0683,-0.0702,-0.0712,-0.0734,-0.0735,-0.0737,-0.073,-0.0749,-0.0748,-0.0748,-0.0719,-0.0716,-0.0713,0,0,0,0,0,0,-0.0425,-0.0506,-0.0532,-0.0577,-0.0602,-0.0638,-0.0646,-0.0666,-0.0682,-0.0687,-0.0708,-0.0713,-0.0718,-0.0728,-0.0729,-0.0731,-0.0743,-0.0743,-0.072,-0.0718,-0.0715,-0.07,-0.0744,0,0,0,0,0,-0.0428,-0.0476,-0.0527,-0.056,-0.0574,-0.0609,-0.0623,-0.0643,-0.0665,-0.0674,-0.0692,-0.0707,-0.0715,-0.072,-0.0729,-0.0727,-0.0732,-0.0725,-0.0722,-0.072,-0.0709,-0.0709,-0.0705,-0.0746,-0.0746,-0.0746,0,0,-0.0421,-0.0468,-0.0497,-0.0554,-0.0577,-0.0585,-0.0618,-0.0638,-0.0641,-0.0673,-0.068,-0.0698,-0.0713,-0.0715,-0.0717,-0.0723,-0.0713,-0.0719,-0.0717,-0.0708,-0.0708,-0.0703,-0.07,-0.0746,-0.0746,-0.0746,0,0,-0.041,-0.0467,-0.0494,-0.0513,-0.0552,-0.057,-0.0575,-0.0611,-0.0625,-0.0635,-0.0658,-0.0669,-0.0687,-0.0693,-0.0698,-0.0685,-0.0701,-0.0694,-0.0667,-0.0667,-0.0663,-0.066,-0.0668,-0.0666,-0.0692,-0.0692,-0.0692,0,-0.0387,-0.0441,-0.0496,-0.0509,-0.0521,-0.056,-0.0561,-0.0575,-0.0608,-0.0613,-0.0633,-0.0655,-0.0672,-0.0666,-0.0667,-0.0677,-0.0686,-0.0677,-0.0663,-0.066,-0.0657,-0.0666,-0.0664,-0.069,-0.069,-0.0691,-0.0691,0,-0.0396,-0.0426,-0.0434,-0.0475,-0.0487,-0.0495,-0.0523,-0.0531,-0.0554,-0.0572,-0.0582,-0.0606,-0.0619,-0.0628,-0.0645,-0.0634,-0.065,-0.066,-0.0668,-0.0651,-0.0662,-0.066,-0.0688,-0.0689,-0.0689,-0.0689,0,0,-0.0364,-0.0431,-0.0429,-0.0437,-0.0471,-0.0476,-0.0478,-0.0491,-0.0487,-0.0519,-0.0511,-0.0538,-0.0561,-0.0569,-0.0592,-0.0593,-0.0589,-0.0619,-0.062,-0.0623,-0.0597,-0.0592,-0.0591,-0.0601,-0.06,-0.0599,-0.0615,0,-0.0345,-0.0364,-0.0403,-0.0397,-0.0404,-0.0432,-0.0428,-0.0442,-0.0459,-0.0457,-0.0485,-0.0489,-0.0536,-0.0541,-0.0552,-0.0569,-0.0583,-0.0585,-0.0616,-0.0617,-0.0611,-0.0587,-0.0559,-0.0569,-0.0613,-0.0613,-0.0613,0,-0.0335,-0.0351,-0.0352,-0.0368,-0.0372,-0.0371,-0.0369,-0.0371,-0.038,-0.0392,-0.0407,-0.043,-0.0436,-0.0478,-0.0508,-0.0509,-0.0555,-0.0576,-0.0577,-0.0579,-0.0609,-0.0592,-0.0565,-0.061,-0.0611,-0.0611,-0.0611,0,-0.0288,-0.0309,-0.0309,-0.0315,-0.0337,-0.0336,-0.0345,-0.0355,-0.0337,-0.0349,-0.0327,-0.0363,-0.0344,-0.0411,-0.0462,-0.0489,-0.0487,-0.053,-0.0574,-0.0575,-0.0558,-0.0558,-0.0561,-0.0561,-0.0561,-0.0561,-0.0561,0,-0.0255,-0.0252,-0.029,-0.0286,-0.0265,-0.0304,-0.028,-0.0287,-0.0279,-0.0223,-0.0292,-0.0236,-0.0323,-0.0333,-0.0426,-0.0477,-0.0464,-0.0558,-0.0571,-0.0549,-0.0547,-0.0589,-0.0592,-0.0562,-0.0562,-0.0561,-0.0561,0,-0.0201,-0.0235,-0.0224,-0.0243,-0.0244,-0.0228,-0.0224,-0.0196,-0.0208,-0.0129,-0.0122,-0.0115,-0.0122,-0.022,-0.029,-0.0395,-0.0472,-0.0502,-0.0472,-0.0481,-0.058,-0.0582,-0.0565,-0.0565,-0.0564,-0.0564,-0.0564,0,-0.0183,-0.0173,-0.0171,-0.015,-0.0158,-0.0151,-0.0129,-0.015,-0.0105,-0.0033,0.0032,0.0046,0.0107,-0.0012,-0.0205,-0.0367,-0.041,-0.0471,-0.0523,-0.0562,-0.0577,-0.0579,-0.058,-0.0497,-0.0496,-0.0496,-0.0496,0,-0.0118,-0.0116,-0.0095,-0.0058,-0.0035,-0.0,0.0025,0.0081,0.0099,0.0197,0.0344,0.0401,0.0267,0.0145,-0.0113,-0.0243,-0.045,-0.0467,-0.0491,-0.0499,-0.0499,-0.0514,-0.0517,-0.0491,-0.0491,-0.0492,-0.0492,-0.0492,-0.0051,-0.0016,0.0013,0.0056,0.0085,0.0161,0.023,0.0308,0.0443,0.0608,0.06,0.069,0.0437,0.0157,-0.0079,-0.0366,-0.0387,-0.0496,-0.0497,-0.0499,-0.0487,-0.0486,-0.0474,-0.0475,-0.0475,-0.0475,-0.0475,0,0.004,0.007,0.0123,0.0183,0.025,0.023,0.0349,0.0463,0.0686,0.08,0.0935,0.0749,0.0566,0.0271,-0.0144,-0.0398,-0.0433,-0.0468,-0.0462,-0.0465,-0.0468,-0.0455,-0.0433,-0.0434,-0.0434,-0.0434,0,0,0.0095,0.0171,0.0197,0.0325,0.0363,0.0477,0.0566,0.077,0.0889,0.1071,0.1098,0.1044,0.0663,0.0375,0.0028,-0.019,-0.0265,-0.0234,-0.0246,-0.0201,-0.02,-0.0468,-0.0449,0,0,0,0,0]}],[{"header":{"parameterUnit":"m.s-1","parameterCategory":2,"la1":30.2991,"la2":30.254,"lo1":-89.0895,"lo2":-89.0444,"dy":0.0017,"dx":0.0017,"nx":28,"ny":28,"refTime":"2024-06-10T03:00:00:Z","depth":"4","parameterNumber":2,"parameterNumberName":"U-component_of_CURRENTS"},"data":[0,0,0,0,0,0,0,0,0,0,0,0,0,0,0,0,0,0,0,0,0,0,0,0,0,0,0,0,0,0,0,0,0,0,0,0,0,0,0,0,0,0,0,0,0,0,0,0,0,0,0,0,0,0,0,0,0,0,0.035,0.035,0,0.0366,0.0367,0.0367,0.0445,0.0446,0.0448,0.0449,0.0609,0.0611,0.0614,0,0,0,0,0,0,0,0,0,0,0,0,0,0.0394,0.0393,0.035,0.035,0.035,0.0366,0.0367,0.0367,0.0444,0.0446,0.0448,0.045,0.0608,0.0611,0.0614,0,0,0,0,0,0,0,0,0,0,0,0,0,0.0391,0.0392,0.0349,0.0389,0.0393,0.0366,0.0367,0.0367,0.0444,0.0446,0.0449,0.0451,0.0607,0.0611,0.0615,0.0589,0,0,0.0627,0.0629,0,0,0,0,0,0,0,0,0.0391,0.0389,0.0383,0.0386,0.039,0.0404,0.0441,0.0448,0.0443,0.0426,0.045,0.0452,0.0551,0.0559,0.0557,0.0597,0.0603,0.0627,0.063,0.0631,0.0632,0,0,0,0,0,0,0,0.0391,0.0389,0.0358,0.0383,0.0387,0.0409,0.0411,0.0442,0.0478,0.0428,0.0433,0.0431,0.0554,0.0553,0.0562,0.0606,0.0627,0.0631,0.0633,0.0635,0.0777,0.0779,0,0,0,0,0,0,0.0382,0.0388,0.0357,0.0358,0.0395,0.0406,0.0409,0.0399,0.0475,0.0487,0.0429,0.0435,0.0545,0.0557,0.0568,0.0705,0.0631,0.0635,0.0637,0.0776,0.0778,0.0779,0,0,0,0,0,0,0.0382,0.0378,0.0357,0.0373,0.0372,0.0402,0.039,0.0398,0.0467,0.0474,0.049,0.0499,0.0547,0.0562,0.0662,0.0706,0.0637,0.0641,0.0774,0.0777,0.0779,0.0876,0,0,0,0,0,0,0.0383,0.0378,0.0387,0.0372,0.0371,0.0372,0.0388,0.0396,0.0456,0.0466,0.0537,0.055,0.0551,0.0656,0.0666,0.0711,0.0644,0.0773,0.0775,0.0778,0.0871,0.0881,0.089,0,0,0,0,0,0.0385,0.0372,0.0387,0.0385,0.0375,0.0372,0.0375,0.0405,0.0458,0.0481,0.0553,0.0552,0.0678,0.0661,0.0672,0.0719,0.0771,0.0775,0.0778,0.0867,0.0879,0.0889,0,0,0,0,0,0,0.0396,0.0378,0.0395,0.038,0.0394,0.0386,0.0398,0.0444,0.0515,0.0556,0.0585,0.0602,0.0694,0.0694,0.0675,0.0763,0.0718,0.0723,0.0782,0.0793,0.0803,0.0816,0.0647,0,0,0,0,0,0.0399,0.039,0.0387,0.0382,0.0386,0.0414,0.0429,0.0467,0.0512,0.0549,0.0614,0.0669,0.0698,0.0744,0.0766,0.0834,0.0824,0.0864,0.0873,0.0882,0.0898,0.0922,0.0936,0.0789,0.0789,0.0789,0,0,0.0399,0.0391,0.0387,0.0385,0.0393,0.0412,0.0431,0.0472,0.0537,0.0555,0.0688,0.0713,0.0722,0.0788,0.0828,0.0811,0.0915,0.0885,0.0893,0.0905,0.0927,0.0941,0.0954,0.0792,0.0791,0.0791,0,0,0.038,0.039,0.0376,0.0393,0.0424,0.0446,0.0479,0.0533,0.0607,0.0714,0.0736,0.0801,0.0878,0.0885,0.0892,0.0969,0.0958,0.0982,0.1058,0.1081,0.1094,0.1105,0.1101,0.1111,0.0995,0.0995,0.0995,0,0.0394,0.0373,0.0377,0.038,0.0407,0.0474,0.0501,0.0568,0.0675,0.0742,0.0776,0.0897,0.0911,0.0969,0.0996,0.0992,0.1004,0.1017,0.1095,0.1106,0.1115,0.1109,0.1118,0.1,0.0999,0.0999,0.0998,0,0.036,0.0371,0.0366,0.0395,0.043,0.0466,0.0549,0.0631,0.0744,0.0829,0.0963,0.0998,0.1068,0.1072,0.1066,0.114,0.1124,0.1099,0.107,0.1136,0.1124,0.1133,0.1007,0.1005,0.1004,0.1002,0,0,0.0331,0.0342,0.0348,0.0382,0.0457,0.0487,0.0583,0.0687,0.0778,0.0925,0.1038,0.1113,0.1183,0.1194,0.1205,0.1233,0.1297,0.1218,0.1217,0.122,0.1354,0.1262,0.1261,0.1307,0.1309,0.1311,0.1315,0,0.0321,0.0323,0.0346,0.041,0.043,0.0515,0.0597,0.072,0.0843,0.0975,0.1077,0.1188,0.122,0.1263,0.1313,0.1301,0.1328,0.1298,0.1284,0.1283,0.1198,0.127,0.1318,0.1321,0.1323,0.1324,0.1325,0,0.0285,0.0302,0.0335,0.0427,0.0448,0.0518,0.0657,0.0754,0.0925,0.1022,0.1169,0.1257,0.1368,0.1357,0.1441,0.1437,0.1417,0.1396,0.1395,0.1284,0.1207,0.1241,0.1339,0.1338,0.1337,0.1336,0.1335,0,0.0256,0.0308,0.0344,0.0374,0.0475,0.054,0.0636,0.0788,0.0893,0.1077,0.116,0.1321,0.1407,0.1448,0.1462,0.1469,0.1501,0.1485,0.1377,0.1368,0.1405,0.1393,0.1512,0.1512,0.1512,0.1512,0.1512,0,0.0234,0.0268,0.0347,0.0373,0.0468,0.0562,0.0703,0.079,0.095,0.1073,0.1227,0.1312,0.144,0.1486,0.1482,0.147,0.1529,0.1408,0.1377,0.1442,0.1435,0.1409,0.1397,0.1512,0.1512,0.1512,0.1512,0,0.0191,0.0225,0.0278,0.0396,0.045,0.0539,0.0738,0.0816,0.0979,0.112,0.1184,0.1342,0.1414,0.1473,0.1495,0.1479,0.1451,0.1404,0.1461,0.1428,0.13,0.1294,0.133,0.1327,0.1324,0.1322,0.132,0,0.0175,0.0183,0.0289,0.0335,0.0404,0.0555,0.0634,0.0816,0.0899,0.1117,0.1154,0.1285,0.1374,0.1361,0.1409,0.1399,0.1367,0.135,0.1359,0.1323,0.1289,0.1286,0.1282,0.1316,0.1316,0.1315,0.1315,0,0.0148,0.0171,0.0212,0.0293,0.0386,0.0494,0.064,0.0681,0.0874,0.1022,0.1129,0.12,0.1261,0.1309,0.1297,0.128,0.138,0.1325,0.133,0.1339,0.1307,0.1275,0.1275,0.1306,0.1307,0.1308,0.1309,0,0.014,0.0155,0.0192,0.0259,0.0351,0.0411,0.05,0.0616,0.0729,0.0956,0.0973,0.1112,0.1237,0.1241,0.1224,0.1221,0.1221,0.1194,0.1206,0.1216,0.1179,0.1122,0.1056,0,0,0,0,0,0.0151,0.014,0.0167,0.0237,0.0301,0.037,0.048,0.056,0.0722,0.077,0.0891,0.0948,0.1025,0.1081,0.1056,0.1139,0.1183,0.1103,0.1147,0.1259,0.1268,0.1236,0,0,0,0,0,0,0.0158,0.0174,0.0142,0.0179,0.0226,0.0318,0.0378,0.0475,0.0526,0.0693,0.0729,0.0901,0.0958,0.1037,0.1047,0.1061,0.107,0.1195,0.1192,0.1253,0.1262,0.127,0.124,0,0,0,0,0]},{"header":{"parameterUnit":"m.s-1","parameterCategory":2,"la1":30.2991,"la2":30.254,"lo1":-89.0895,"lo2":-89.0444,"dy":0.0017,"dx":0.0017,"nx":28,"ny":28,"refTime":"2024-06-10T03:00:00:Z","depth":"4","parameterNumber":3,"parameterNumberName":"V-component_of_CURRENTS"},"data":[0,0,0,0,0,0,0,0,0,0,0,0,0,0,0,0,0,0,0,0,0,0,0,0,0,0,0,0,0,0,0,0,0,0,0,0,0,0,0,0,0,0,0,0,0,0,0,0,0,0,0,0,0,0,0,0,0,0,0.0417,0.0417,0,0.046,0.046,0.046,0.0481,0.0481,0.0482,0.0482,0.0317,0.0313,0.0308,0,0,0,0,0,0,0,0,0,0,0,0,0,0.025,0.0253,0.0416,0.0417,0.0418,0.0459,0.046,0.046,0.0481,0.0481,0.0482,0.0482,0.0319,0.0313,0.0307,0,0,0,0,0,0,0,0,0,0,0,0,0,0.0307,0.0254,0.0416,0.0437,0.0439,0.0459,0.046,0.046,0.0481,0.0481,0.0482,0.0483,0.0321,0.0314,0.0307,0.0251,0,0,0.0285,0.0282,0,0,0,0,0,0,0,0,0.0304,0.0312,0.0433,0.0436,0.0439,0.0469,0.0341,0.0381,0.0481,0.0461,0.0482,0.0483,0.0351,0.0341,0.0345,0.0243,0.0236,0.0284,0.028,0.0277,0.0275,0,0,0,0,0,0,0,0.03,0.031,0.0429,0.0434,0.0437,0.0409,0.0418,0.0349,0.0395,0.0462,0.0465,0.0476,0.0351,0.0352,0.0341,0.0234,0.0284,0.0278,0.0274,0.0271,0.0012,0.0009,0,0,0,0,0,0,0.0309,0.0307,0.0428,0.0431,0.0376,0.0412,0.0422,0.0455,0.04,0.0395,0.0476,0.0477,0.0364,0.0349,0.0335,0.0237,0.0277,0.027,0.0266,0.0014,0.0011,0.0008,0,0,0,0,0,0,0.0305,0.032,0.0426,0.0371,0.0384,0.0416,0.0452,0.0456,0.0481,0.0414,0.0404,0.05,0.0364,0.0345,0.0269,0.0231,0.0267,0.0261,0.0017,0.0013,0.001,0.0057,0,0,0,0,0,0,0.0301,0.0319,0.0353,0.0373,0.0388,0.0448,0.0452,0.0457,0.0487,0.049,0.0429,0.0414,0.0363,0.028,0.0262,0.0222,0.0255,0.0021,0.0016,0.0011,0.0059,0.0055,0.0052,0,0,0,0,0,0.0295,0.0341,0.0355,0.037,0.0432,0.0449,0.0453,0.0473,0.0488,0.0497,0.0443,0.0417,0.0235,0.0272,0.0252,0.0209,0.0023,0.0017,0.0011,0.006,0.0056,0.0052,0,0,0,0,0,0,0.0283,0.0348,0.0364,0.0428,0.0441,0.0454,0.0477,0.0487,0.0459,0.0462,0.0395,0.0375,0.0285,0.0238,0.0281,0.0114,0.0119,0.0109,0.0163,0.0158,0.0155,0.0214,0.0249,0,0,0,0,0,0.0298,0.0357,0.0386,0.0436,0.0448,0.0465,0.0481,0.0492,0.0472,0.0466,0.0408,0.0331,0.024,0.0199,0.0116,0.0038,0.0014,-0.0011,-0.0014,-0.0016,0.0014,-0.0065,-0.007,-0.0011,-0.0011,-0.0011,0,0,0.0304,0.0352,0.0383,0.0438,0.0455,0.047,0.0476,0.0507,0.0509,0.0443,0.0408,0.032,0.0216,0.0121,0.0076,0.0082,-0.005,-0.0023,-0.0024,0.0008,-0.0071,-0.0076,-0.0081,-0.0015,-0.0014,-0.0014,0,0,0.0332,0.039,0.0436,0.045,0.0488,0.0495,0.0509,0.0515,0.0511,0.0459,0.0397,0.0305,0.0178,0.01,0.0041,-0.003,-0.0067,-0.0079,-0.0042,-0.012,-0.0124,-0.0127,-0.0166,-0.0173,-0.0077,-0.0077,-0.0077,0,0.0336,0.0403,0.0443,0.0473,0.0491,0.0509,0.0529,0.0525,0.0496,0.0475,0.0449,0.0255,0.0169,0.0057,0.0024,-0.0032,-0.0068,-0.001,-0.0118,-0.0122,-0.0127,-0.0165,-0.0174,-0.0076,-0.0076,-0.0076,-0.0076,0,0.0381,0.0429,0.0453,0.0504,0.0521,0.0547,0.0546,0.0534,0.0517,0.0496,0.039,0.0267,0.016,0.009,0.0035,-0.0059,-0.0071,-0.011,-0.0089,-0.0128,-0.0169,-0.0178,-0.0074,-0.0074,-0.0075,-0.0075,0,0,0.0395,0.0473,0.0481,0.0506,0.0543,0.0561,0.0554,0.0548,0.0543,0.047,0.043,0.0262,0.0217,0.0148,0.0052,-0.0022,-0.0099,-0.0071,-0.0076,-0.0073,-0.0244,-0.0217,-0.0225,-0.0158,-0.0159,-0.0161,-0.0257,0,0.0414,0.0483,0.0512,0.0553,0.058,0.0584,0.0575,0.0567,0.0533,0.049,0.0383,0.03,0.0235,0.0167,0.0088,-0.0065,-0.0123,-0.0067,-0.0236,-0.024,-0.0182,-0.0235,-0.0166,-0.0265,-0.0267,-0.0269,-0.027,0,0.0436,0.0486,0.0545,0.0583,0.0595,0.0623,0.0623,0.0619,0.0568,0.0527,0.0452,0.0372,0.0253,0.0198,-0.0011,0.0026,-0.0086,-0.0192,-0.0199,-0.0186,-0.023,-0.0225,-0.0288,-0.0286,-0.0285,-0.0284,-0.0283,0,0.0434,0.0497,0.0556,0.0572,0.0619,0.0641,0.0664,0.0639,0.0631,0.0573,0.0534,0.0407,0.032,0.0169,-0.0036,-0.0031,-0.0263,-0.0287,-0.0355,-0.0354,-0.0363,-0.0359,-0.0411,-0.041,-0.041,-0.041,-0.041,0,0.0442,0.048,0.0573,0.0607,0.0661,0.0683,0.0724,0.0705,0.0681,0.066,0.0578,0.0499,0.0303,0.0145,-0.0018,-0.0212,-0.0247,-0.0338,-0.0381,-0.0345,-0.0338,-0.037,-0.0364,-0.0414,-0.0413,-0.0412,-0.0411,0,0.0427,0.0488,0.0555,0.0639,0.0673,0.072,0.0792,0.0793,0.0773,0.0735,0.0714,0.056,0.0363,0.0168,-0.0101,-0.0191,-0.0385,-0.0445,-0.0369,-0.0408,-0.0417,-0.0408,-0.0501,-0.0501,-0.05,-0.05,-0.05,0,0.0433,0.0474,0.0592,0.064,0.0697,0.078,0.0818,0.0841,0.0836,0.0749,0.0707,0.0539,0.0417,0.008,-0.0116,-0.0375,-0.0417,-0.0483,-0.0453,-0.0395,-0.0429,-0.042,-0.0411,-0.05,-0.05,-0.05,-0.05,0,0.0428,0.048,0.0537,0.0653,0.0732,0.0807,0.0871,0.0852,0.0839,0.0832,0.0681,0.0521,0.0311,0.0077,-0.012,-0.0317,-0.042,-0.0483,-0.0483,-0.0456,-0.0396,-0.0427,-0.0419,-0.05,-0.05,-0.05,-0.05,0,0.0428,0.0467,0.0558,0.0635,0.074,0.0791,0.0828,0.0819,0.082,0.0721,0.0667,0.0457,0.0352,0.0103,-0.0099,-0.0261,-0.0287,-0.0321,-0.0331,-0.0333,-0.0252,-0.0149,-0.021,0,0,0,0,0,0.0429,0.0457,0.0527,0.0628,0.0723,0.0795,0.0832,0.0847,0.0826,0.0725,0.0702,0.0508,0.0239,0.0114,-0.0045,-0.0097,-0.032,-0.0284,-0.0365,-0.0499,-0.0499,-0.043,0,0,0,0,0,0,0.0437,0.0498,0.0509,0.0593,0.0664,0.0781,0.0804,0.0788,0.0734,0.0687,0.0535,0.0509,0.0234,0.0336,-0.0034,-0.0081,-0.0146,-0.0395,-0.0398,-0.0499,-0.0499,-0.0499,-0.0428,0,0,0,0,0]}]]